[[{"header":{"parameterUnit":"m.s-1","parameterCategory":1,"la1":30.2991,"la2":30.254,"lo1":-89.0895,"lo2":-89.0444,"dy":0.0017,"dx":0.0017,"nx":28,"ny":28,"refTime":"2023-11-10T03:00:00:Z","depth":0,"parameterNumber":2,"parameterNumberName":"U-component_of_WINDS"},"data":[0,0,0,0,0,0,0,0,0,0,0,0,0,0,0,0,0,0,0,0,0,0,0,0,0,0,0,0,0,0,0,0,0,0,0,0,0,0,0,0,0,0,0,0,0,0,0,0,0,0,0,0,0,0,0,0,0,0,-5.3732,-5.3733,0,-5.3778,-5.3778,-5.3779,-5.3662,-5.3658,-5.3655,-5.3651,-5.3695,-5.37,-5.3704,0,0,0,0,0,0,0,0,0,0,0,0,0,-5.354,-5.3544,-5.3732,-5.3733,-5.3733,-5.3778,-5.3778,-5.3779,-5.3663,-5.3658,-5.3654,-5.365,-5.3694,-5.3699,-5.3705,0,0,0,0,0,0,0,0,0,0,0,0,0,-5.3608,-5.3545,-5.3732,-5.3681,-5.3676,-5.3778,-5.3779,-5.3779,-5.3664,-5.3658,-5.3653,-5.3648,-5.3692,-5.3699,-5.3706,-5.3858,0,0,-5.3727,-5.373,0,0,0,0,0,0,0,0,-5.3605,-5.3616,-5.3688,-5.3684,-5.368,-5.3709,-5.3727,-5.3806,-5.3665,-5.3669,-5.3651,-5.3645,-5.3704,-5.371,-5.373,-5.386,-5.3862,-5.3727,-5.3731,-5.3734,-5.3736,0,0,0,0,0,0,0,-5.36,-5.3613,-5.375,-5.3689,-5.3684,-5.3654,-5.3658,-5.3741,-5.3716,-5.3668,-5.3659,-5.3667,-5.3701,-5.3724,-5.373,-5.3862,-5.3727,-5.3733,-5.3737,-5.374,-5.4119,-5.4125,0,0,0,0,0,0,-5.3602,-5.361,-5.3749,-5.3751,-5.3628,-5.3662,-5.3666,-5.3705,-5.3715,-5.3712,-5.3671,-5.3661,-5.3715,-5.3723,-5.3732,-5.3911,-5.3734,-5.3741,-5.3745,-5.4113,-5.4121,-5.4127,0,0,0,0,0,0,-5.3599,-5.3616,-5.3747,-5.3678,-5.3693,-5.3671,-5.3716,-5.3709,-5.3732,-5.3718,-5.3712,-5.37,-5.3711,-5.3722,-5.3828,-5.3911,-5.3744,-5.375,-5.4106,-5.4116,-5.4124,-5.4272,0,0,0,0,0,0,-5.3594,-5.3615,-5.3674,-5.3681,-5.3697,-5.3844,-5.3721,-5.3714,-5.3744,-5.3731,-5.3743,-5.374,-5.3707,-5.3818,-5.3835,-5.3918,-5.3756,-5.4099,-5.4111,-5.4121,-5.426,-5.4285,-5.4307,0,0,0,0,0,-5.3587,-5.3713,-5.3678,-5.3695,-5.377,-5.3849,-5.3858,-5.3819,-5.3751,-5.381,-5.3801,-5.3739,-5.3899,-5.383,-5.3847,-5.3934,-5.4093,-5.4107,-5.412,-5.4249,-5.428,-5.4306,0,0,0,0,0,0,-5.3716,-5.3713,-5.3674,-5.3806,-5.3829,-5.3829,-5.3901,-5.3853,-5.3895,-5.3881,-5.3829,-5.3833,-5.3949,-5.3951,-5.3874,-5.4082,-5.3984,-5.4002,-5.4077,-5.4106,-5.4129,-5.4127,-5.3761,0,0,0,0,0,-5.376,-5.3825,-5.3818,-5.3935,-5.3949,-5.3924,-5.3956,-5.3925,-5.3946,-5.3955,-5.3953,-5.3975,-5.403,-5.4067,-5.4117,-5.4258,-5.426,-5.4326,-5.435,-5.4369,-5.4386,-5.4461,-5.4491,-5.4171,-5.4171,-5.4171,0,0,-5.3851,-5.3857,-5.3902,-5.3962,-5.3976,-5.4044,-5.3933,-5.4009,-5.4059,-5.3966,-5.4066,-5.4066,-5.4087,-5.4212,-5.4266,-5.4217,-5.4474,-5.4386,-5.4402,-5.4408,-5.4478,-5.4508,-5.4535,-5.418,-5.4178,-5.4177,0,0,-5.4052,-5.4063,-5.4163,-5.4179,-5.4202,-5.4184,-5.4208,-5.4216,-5.4213,-5.4313,-5.4244,-5.4301,-5.4397,-5.4415,-5.4437,-5.4645,-5.459,-5.4662,-5.4786,-5.486,-5.4885,-5.4907,-5.4983,-5.501,-5.4678,-5.4678,-5.4678,0,-5.4163,-5.4264,-5.422,-5.4302,-5.433,-5.4249,-5.4349,-5.4366,-5.4404,-5.4425,-5.4369,-5.4488,-5.4496,-5.4624,-5.4675,-5.4695,-5.472,-5.4662,-5.4885,-5.4907,-5.4927,-5.4998,-5.5026,-5.4687,-5.4686,-5.4685,-5.4684,0,-5.4399,-5.447,-5.4547,-5.4587,-5.4624,-5.4714,-5.4683,-5.4725,-5.4689,-5.4677,-5.4779,-5.4786,-5.4836,-5.4864,-5.4829,-5.4987,-5.4956,-5.4894,-5.4795,-5.4967,-5.5033,-5.506,-5.47,-5.4696,-5.4694,-5.4692,0,0,-5.4685,-5.4699,-5.4728,-5.4746,-5.4764,-5.4818,-5.4904,-5.4954,-5.4991,-5.5019,-5.509,-5.5173,-5.5115,-5.514,-5.5106,-5.5171,-5.5337,-5.51,-5.51,-5.5146,-5.5512,-5.5561,-5.5593,-5.5299,-5.5304,-5.5308,-5.5511,0,-5.4885,-5.5035,-5.4997,-5.5146,-5.5211,-5.5134,-5.5209,-5.5228,-5.5219,-5.5271,-5.5259,-5.532,-5.5238,-5.5253,-5.5313,-5.5304,-5.541,-5.5288,-5.5365,-5.5369,-5.5365,-5.5627,-5.5679,-5.587,-5.5536,-5.5541,-5.5544,0,-5.514,-5.5179,-5.5335,-5.5343,-5.5369,-5.5438,-5.548,-5.5532,-5.5551,-5.5539,-5.5567,-5.552,-5.5604,-5.5504,-5.5619,-5.5537,-5.5565,-5.5565,-5.5572,-5.5579,-5.5469,-5.5644,-5.593,-5.596,-5.5584,-5.5581,-5.5578,0,-5.5335,-5.5427,-5.5532,-5.5549,-5.5561,-5.5611,-5.5617,-5.5631,-5.5664,-5.57,-5.5721,-5.5766,-5.5792,-5.5827,-5.5794,-5.5723,-5.5915,-5.5811,-5.5907,-5.5909,-5.5953,-5.5951,-5.625,-5.5968,-5.5968,-5.5967,-5.5967,0,-5.5564,-5.5663,-5.562,-5.5685,-5.5793,-5.5747,-5.5855,-5.5852,-5.5866,-5.5928,-5.5863,-5.5922,-5.5873,-5.5928,-5.5902,-5.6002,-5.6013,-5.6006,-5.5998,-5.6013,-5.6015,-5.6033,-5.602,-5.5975,-5.5973,-5.5972,-5.597,0,-5.5802,-5.5777,-5.5887,-5.5889,-5.5892,-5.5972,-5.5973,-5.6032,-5.6017,-5.6097,-5.6113,-5.6089,-5.6151,-5.612,-5.6183,-5.6165,-5.6295,-5.6268,-5.6289,-5.6283,-5.6382,-5.6374,-5.6706,-5.6747,-5.6437,-5.644,-5.6442,0,-5.5952,-5.6026,-5.6036,-5.6074,-5.6086,-5.6148,-5.6181,-5.6137,-5.6174,-5.6202,-5.6258,-5.6314,-5.6357,-5.6458,-5.6446,-5.6494,-5.6469,-5.6582,-5.6476,-5.6489,-5.6473,-5.647,-5.6478,-5.6604,-5.6607,-5.661,-5.6613,0,-5.622,-5.6204,-5.6255,-5.6302,-5.6344,-5.6378,-5.6407,-5.6441,-5.6398,-5.6443,-5.6505,-5.6539,-5.6604,-5.666,-5.6702,-5.6707,-5.6654,-5.6646,-5.6671,-5.6689,-5.6699,-5.6696,-5.635,-5.6639,-5.6636,-5.6634,-5.6633,-5.6632,-5.6419,-5.6482,-5.65,-5.6559,-5.6576,-5.6604,-5.6661,-5.6653,-5.6704,-5.6755,-5.6725,-5.6799,-5.6815,-5.6866,-5.6878,-5.6934,-5.689,-5.6926,-5.6935,-5.6946,-5.696,-5.6688,-5.6941,-5.6941,-5.694,-5.6939,-5.6939,0,-5.6686,-5.6693,-5.6748,-5.6791,-5.6837,-5.6782,-5.6811,-5.6853,-5.6919,-5.6939,-5.6983,-5.7055,-5.7109,-5.7101,-5.715,-5.7196,-5.7173,-5.7211,-5.7208,-5.7211,-5.6996,-5.6971,-5.7229,-5.7229,-5.7229,-5.7229,-5.7229,-5.7229,-5.683,-5.6934,-5.692,-5.7031,-5.7037,-5.711,-5.7131,-5.7157,-5.7173,-5.7257,-5.7302,-5.7296,-5.7304,-5.7354,-5.7401,-5.7396,-5.7418,-5.7466,-5.7453,-5.7254,-5.7225,-5.7198,-5.7174,-5.7471,-5.7471,-5.7663,-5.7665,-5.7666]},{"header":{"parameterUnit":"m.s-1","parameterCategory":1,"la1":30.2991,"la2":30.254,"lo1":-89.0895,"lo2":-89.0444,"dy":0.0017,"dx":0.0017,"nx":28,"ny":28,"refTime":"2023-11-10T03:00:00:Z","depth":0,"parameterNumber":3,"parameterNumberName":"V-component_of_WINDS"},"data":[0,0,0,0,0,0,0,0,0,0,0,0,0,0,0,0,0,0,0,0,0,0,0,0,0,0,0,0,0,0,0,0,0,0,0,0,0,0,0,0,0,0,0,0,0,0,0,0,0,0,0,0,0,0,0,0,0,0,-5.3259,-5.3259,0,-5.3298,-5.3298,-5.3299,-5.3229,-5.3226,-5.3224,-5.3222,-5.3259,-5.3262,-5.3265,0,0,0,0,0,0,0,0,0,0,0,0,0,-5.312,-5.3123,-5.3259,-5.3259,-5.326,-5.3298,-5.3298,-5.3299,-5.3229,-5.3226,-5.3223,-5.3221,-5.3258,-5.3262,-5.3265,0,0,0,0,0,0,0,0,0,0,0,0,0,-5.3172,-5.3124,-5.3259,-5.323,-5.3227,-5.3298,-5.3298,-5.3299,-5.323,-5.3226,-5.3223,-5.3219,-5.3257,-5.3261,-5.3266,-5.3366,0,0,-5.3281,-5.3283,0,0,0,0,0,0,0,0,-5.3169,-5.3177,-5.3233,-5.3232,-5.3229,-5.3255,-5.3263,-5.3321,-5.323,-5.3229,-5.3222,-5.3218,-5.326,-5.3264,-5.3279,-5.3367,-5.3369,-5.3281,-5.3284,-5.3286,-5.3287,0,0,0,0,0,0,0,-5.3166,-5.3175,-5.3274,-5.3234,-5.3232,-5.3213,-5.3217,-5.3274,-5.3264,-5.3229,-5.3224,-5.3229,-5.3258,-5.3275,-5.328,-5.3369,-5.3281,-5.3285,-5.3288,-5.329,-5.354,-5.3543,0,0,0,0,0,0,-5.3166,-5.3172,-5.3273,-5.3275,-5.319,-5.3219,-5.3223,-5.325,-5.3263,-5.3261,-5.3232,-5.3226,-5.3269,-5.3274,-5.3281,-5.3398,-5.3286,-5.329,-5.3293,-5.3536,-5.354,-5.3544,0,0,0,0,0,0,-5.3163,-5.3176,-5.3271,-5.3223,-5.3233,-5.3225,-5.3256,-5.3253,-5.3269,-5.3266,-5.3263,-5.3251,-5.3266,-5.3274,-5.3345,-5.3398,-5.3292,-5.3297,-5.3531,-5.3537,-5.3542,-5.3633,0,0,0,0,0,0,-5.316,-5.3175,-5.3214,-5.3224,-5.3236,-5.3336,-5.326,-5.3256,-5.3278,-5.327,-5.3283,-5.3282,-5.3264,-5.3338,-5.335,-5.3403,-5.33,-5.3527,-5.3534,-5.3541,-5.3625,-5.3641,-5.3654,0,0,0,0,0,-5.3155,-5.3238,-5.3216,-5.3229,-5.3285,-5.3339,-5.3346,-5.3325,-5.3283,-5.3321,-5.3318,-5.3281,-5.339,-5.3346,-5.3358,-5.3414,-5.3523,-5.3532,-5.354,-5.3618,-5.3638,-5.3654,0,0,0,0,0,0,-5.3233,-5.3238,-5.3215,-5.3303,-5.3322,-5.3328,-5.3375,-5.3346,-5.3376,-5.3368,-5.3339,-5.3342,-5.3419,-5.3423,-5.3374,-5.351,-5.3449,-5.3461,-5.3505,-5.3523,-5.3537,-5.3535,-5.3304,0,0,0,0,0,-5.3261,-5.3306,-5.3308,-5.3385,-5.3396,-5.3384,-5.3407,-5.3389,-5.3407,-5.3414,-5.3416,-5.3434,-5.3472,-5.3497,-5.3532,-5.3625,-5.3626,-5.3669,-5.3683,-5.3696,-5.3706,-5.3754,-5.3773,-5.3572,-5.3572,-5.3572,0,0,-5.3319,-5.3327,-5.3357,-5.3401,-5.3413,-5.346,-5.3391,-5.3443,-5.3477,-5.3421,-5.3489,-5.3491,-5.3508,-5.359,-5.3627,-5.3596,-5.3761,-5.3706,-5.3716,-5.372,-5.3765,-5.3784,-5.3801,-5.3578,-5.3577,-5.3576,0,0,-5.3447,-5.3458,-5.3524,-5.3537,-5.3557,-5.3548,-5.3564,-5.3574,-5.3574,-5.3641,-5.36,-5.3639,-5.3705,-5.3719,-5.3735,-5.3867,-5.3834,-5.3879,-5.3956,-5.4003,-5.4019,-5.4033,-5.408,-5.4097,-5.3889,-5.3889,-5.3889,0,-5.3516,-5.3585,-5.3561,-5.3616,-5.3636,-5.3589,-5.3654,-5.3668,-5.3697,-5.3712,-5.3677,-5.3759,-5.3767,-5.3852,-5.3884,-5.3898,-5.3915,-5.3878,-5.4019,-5.4033,-5.4045,-5.409,-5.4108,-5.3895,-5.3894,-5.3894,-5.3893,0,-5.3669,-5.3717,-5.3768,-5.3798,-5.3824,-5.3884,-5.3868,-5.3896,-5.3876,-5.387,-5.3938,-5.3947,-5.3982,-5.4,-5.398,-5.4082,-5.4062,-5.4024,-5.3963,-5.407,-5.4112,-5.4128,-5.3902,-5.39,-5.3899,-5.3898,0,0,-5.3849,-5.3865,-5.3884,-5.3896,-5.3913,-5.395,-5.4007,-5.4042,-5.4067,-5.4088,-5.4134,-5.4191,-5.4156,-5.4174,-5.4154,-5.4196,-5.43,-5.4153,-5.4152,-5.418,-5.4411,-5.444,-5.446,-5.4278,-5.4281,-5.4283,-5.441,0,-5.3977,-5.4077,-5.4056,-5.4153,-5.4197,-5.4151,-5.42,-5.4216,-5.4212,-5.4247,-5.4242,-5.4283,-5.4233,-5.4244,-5.4283,-5.4279,-5.4346,-5.427,-5.432,-5.4322,-5.4318,-5.4482,-5.4513,-5.4632,-5.4426,-5.4428,-5.443,0,-5.414,-5.4168,-5.427,-5.4279,-5.4296,-5.4341,-5.4371,-5.4406,-5.4421,-5.4415,-5.4435,-5.4408,-5.4463,-5.44,-5.4475,-5.4424,-5.4443,-5.4444,-5.4448,-5.4452,-5.4383,-5.4491,-5.467,-5.4688,-5.4456,-5.4454,-5.4452,0,-5.4261,-5.4324,-5.4393,-5.4405,-5.4417,-5.445,-5.4456,-5.4468,-5.449,-5.4516,-5.453,-5.4561,-5.4579,-5.4603,-5.4584,-5.4541,-5.4662,-5.4598,-5.4658,-5.4659,-5.4687,-5.4685,-5.4871,-5.4699,-5.4698,-5.4698,-5.4698,0,-5.4406,-5.447,-5.4448,-5.449,-5.456,-5.4534,-5.4604,-5.4605,-5.4616,-5.4656,-5.4618,-5.4657,-5.463,-5.4666,-5.4651,-5.4715,-5.4723,-5.472,-5.4715,-5.4723,-5.4724,-5.4736,-5.4727,-5.4703,-5.4702,-5.4701,-5.47,0,-5.4554,-5.4542,-5.4614,-5.4619,-5.4622,-5.4673,-5.4677,-5.4716,-5.4708,-5.4761,-5.4771,-5.476,-5.48,-5.4784,-5.4827,-5.4817,-5.4899,-5.4883,-5.4894,-5.489,-5.4951,-5.4946,-5.5152,-5.5177,-5.4988,-5.499,-5.4991,0,-5.4648,-5.4696,-5.4707,-5.4732,-5.4741,-5.4782,-5.4804,-5.478,-5.4805,-5.4825,-5.4861,-5.4899,-5.4927,-5.4994,-5.4989,-5.5021,-5.5006,-5.5076,-5.501,-5.5017,-5.5007,-5.5005,-5.5009,-5.5089,-5.5091,-5.5093,-5.5095,0,-5.4816,-5.4807,-5.4841,-5.4873,-5.4901,-5.4925,-5.4945,-5.4967,-5.4944,-5.4973,-5.5015,-5.5037,-5.508,-5.5118,-5.5146,-5.5151,-5.5119,-5.5115,-5.5131,-5.514,-5.5144,-5.5143,-5.493,-5.5111,-5.5109,-5.5108,-5.5107,-5.5106,-5.4939,-5.498,-5.4994,-5.5033,-5.5045,-5.5065,-5.5101,-5.5099,-5.5133,-5.5167,-5.515,-5.5198,-5.5211,-5.5245,-5.5255,-5.5291,-5.5264,-5.5286,-5.5292,-5.5298,-5.5306,-5.5138,-5.5296,-5.5295,-5.5295,-5.5295,-5.5294,0,-5.5105,-5.5111,-5.5148,-5.5177,-5.5208,-5.5175,-5.5195,-5.5223,-5.5266,-5.528,-5.5309,-5.5356,-5.5392,-5.5389,-5.5421,-5.5451,-5.5437,-5.546,-5.5458,-5.546,-5.5329,-5.5312,-5.5471,-5.5471,-5.5471,-5.5471,-5.5471,-5.5471,-5.5195,-5.5262,-5.5254,-5.5326,-5.5331,-5.5379,-5.5393,-5.541,-5.5422,-5.5476,-5.5506,-5.5504,-5.5511,-5.5544,-5.5575,-5.5573,-5.5587,-5.5616,-5.5608,-5.5486,-5.5469,-5.5452,-5.5437,-5.5619,-5.5619,-5.5736,-5.5737,-5.5738]}]]